User: anonymous   Login
Location: Mason Neck State Park
(38.6428°N, 77.1981°W)
Time: 17:43:36
(UTC-04:00)
Language:

Cosmos 1400 Rocket - Orbit

View from above orbital plane
View from above orbital plane
View from above satellite
View from above satellite

Ground track
Ground track

The orbit data is extracted from the following two-line orbital elements,

1 13403U 82079B   16211.51137857 -.00000042  00000-0 -43669-5 0  9996
2 13403  81.1693 278.8406 0032626 260.7351  99.0182 15.06259367848147
Epoch (UTC): 29 July 2016 12:16:23
Eccentricity: 0.0032626
inclination: 81.1693°
perigee height: 525 km
apogee height: 570 km
right ascension of ascending node: 278.8406°
argument of perigee: 260.7351°
revolutions per day: 15.06259367
mean anomaly at epoch: 99.0182°
orbit number at epoch: 84814

The dashed part of the orbit path shows where the satellite is in the earth's shadow,  

DLR